This demonstration page uses our WeatherBlox Daily Observations layout. Learn more.

Left ArrowRight Arrow

39.01783, -85.05884

Hourly Observations for January 4, 2020

Temp ( °F °C ) Dew Point ( °F °C ) Humidity (%) Winds ( mph kmh ) Pressure ( in mb ) Visibility ( mi km ) Precip ( " mm )
12:52 am 00:52 Cloudy with Drizzle 47 8.3 45 7.2 93 93 W 8 13 29.78 1008 3 5 0.00 0.00
1:52 am 01:52 Cloudy with Light Rain 46 7.8 44 6.7 93 93 NW 10 17 29.77 1008 3 5 0.00 0.00
2:52 am 02:52 Cloudy with Drizzle 45 7.2 43 6.1 93 93 WNW 6 9 29.79 1009 3 5 0.01 0.25
3:52 am 03:52 Cloudy with Light Rain 45 7.2 42 5.6 90 90 NW 8 13 29.80 1009 8 13 0.00 0.00
4:52 am 04:52 Cloudy with Mist and Fog 44 6.7 41 5 89 89 W 10 17 29.80 1009 4 6 0.00 0.00
5:36 am 05:36 Cloudy with Mist and Fog 43 6.1 41 5 93 93 W 10 17 29.83 1010 3 4 0.00 0.00
5:52 am 05:52 Cloudy with Mist and Fog 43 6.1 41 5 93 93 W 14 22 29.81 1009 3 4 0.00 0.00
6:52 am 06:52 Cloudy with Light Rain 42 5.6 40 4.4 92 92 WNW 15 24 29.81 1010 2 2 0.01 0.25
7:29 am 07:29 Cloudy with Mist and Fog 42 5.6 39 3.9 89 89 WNW 10 17 29.85 1011 3 4 0.00 0.00
7:44 am 07:44 Cloudy with Mist and Fog 41 5 38 3.3 89 89 WNW 14 22 29.85 1011 6 10 0.00 0.00
7:52 am 07:52 Cloudy with Mist and Fog 41 5 38 3.3 89 89 WNW 12 19 29.82 1010 6 10 0.00 0.00
8:52 am 08:52 Cloudy with Light Rain 40 4.4 37 2.8 89 89 WNW 12 19 29.85 1011 5 8 0.01 0.25
9:25 am 09:25 Cloudy with Light Rain 39 3.9 36 2.2 89 89 NW 10 17 29.89 1012 6 10 0.01 0.25
9:52 am 09:52 Cloudy 39 3.9 36 2.2 89 89 NW 9 15 29.87 1012 9 14 0.01 0.25
10:52 am 10:52 Cloudy with Light Rain 38 3.3 35 1.7 89 89 NW 9 15 29.90 1012 3 4 0.00 0.00
11:34 am 11:34 Cloudy with Light Rain 38 3.3 35 1.7 89 89 WNW 13 20 29.92 1013 3 5 0.01 0.25
11:52 am 11:52 Cloudy with Light Rain 38 3.3 35 1.7 89 89 W 17 28 29.89 1012 6 10 0.01 0.25
12:52 pm 12:52 Cloudy with Light Rain 36 2.2 33 0.6 89 89 W 16 26 29.89 1012 9 14 0.01 0.25
1:52 pm 13:52 Cloudy 36 2.2 31 -0.6 82 82 WNW 21 33 29.90 1013 10 16 0.00 0.00
2:52 pm 14:52 Cloudy 36 2.2 30 -1.1 79 79 W 21 33 29.92 1013 7 11 0.00 0.00
3:52 pm 15:52 Cloudy 36 2.2 30 -1.1 79 79 WNW 17 28 29.95 1014 8 13 0.00 0.00
4:08 pm 16:08 Cloudy 36 2.2 30 -1.1 79 79 WNW 17 28 29.99 1016 9 14 0.00 0.00
4:52 pm 16:52 Cloudy 36 2.2 30 -1.1 79 79 WNW 15 24 29.98 1015 8 13 0.00 0.00
5:52 pm 17:52 Cloudy 36 2.2 29 -1.7 76 76 WNW 21 33 30.01 1016 10 16 0.00 0.00
6:50 pm 18:50 Cloudy 36 2 28 -2 75 75 WNW 17 28 30.08 1019 10 16 0.00 0.00
6:52 pm 18:52 Cloudy 35 1.7 29 -1.7 78 78 W 21 33 30.05 1018 10 16 0.00 0.00
7:29 pm 19:29 Cloudy 35 1.7 28 -2.2 76 76 W 15 24 30.10 1019 10 16 0.00 0.00
7:52 pm 19:52 Cloudy 34 1.1 28 -2.2 79 79 WNW 18 30 30.09 1019 10 16 0.00 0.00
8:52 pm 20:52 Cloudy 34 1.1 28 -2.2 79 79 WNW 16 26 30.11 1020 10 16 0.00 0.00
9:52 pm 21:52 Cloudy 34 1.1 26 -3.3 73 73 WNW 16 26 30.12 1020 10 16 0.00 0.00
10:52 pm 22:52 Cloudy 33 0.6 25 -3.9 72 72 WNW 14 22 30.16 1021 10 16 0.00 0.00
11:52 pm 23:52 Cloudy 33 0.6 26 -3.3 75 75 W 10 17 30.16 1021 10 16 0.00 0.00

Powered by AerisWeather